Regional Weather Roundup
Issued by NWS Glasgow, MT

Home | Current Version | Previous Version | Text Only | Print | Product List | Glossary On
Versions: 1 2 3 4 5 6 7 8 9 10 11 12 13 14 15 16 17 18 19 20 21 22 23 24 25 26 27 28 29 30 31 32 33 34 35 36 37 38 39 40 41 42 43 44 45 46 47 48 49 50
000
ASUS45 KGGW 280015
RWRGGW
HOURLY WEATHER ROUNDUP FOR NORTHEAST MONTANA
NATIONAL WEATHER SERVICE GLASGOW MONTANA
500 PM MST FRI FEB 27 2015

NOTE: "FAIR" INDICATES FEW OR NO CLOUDS BELOW 12,000 FEET WITH NO
SIGNIFICANT WEATHER AND/OR OBSTRUCTIONS TO VISISBILITY.

NORTHEAST MONTANA


CITY           SKY/WX    TMP DP  RH WIND       PRES   REMARKS
GLASGOW        PTCLDY    20   5  52 NW8       30.03R
6HR MIN TEMP:  13; 6HR MAX TEMP:  23;

PLENTYWOOD       N/A     21   9  59 SE8G16      N/A
WOLF POINT     MOCLDY    27   6  41 W5        30.03S
JORDAN           N/A     20   1  43 NW18      30.01R
WINNETT          N/A     21  12  68 W12G20      N/A
SIDNEY         MOCLDY    27   7  43 S8        30.05F
GLENDIVE       PTCLDY    27   7  43 SW10      30.01R
MALTA            N/A     24   4  42 N8          N/A
SCOBEY           N/A     23  -1  35 CALM      29.99S

FORT PECK REPORTS


CITY           SKY/WX    TMP DP  RH WIND       PRES   REMARKS
FORT PECK        N/A     22  10  60 W5G14       N/A
THE PINES        N/A     19   5  54 NW7         N/A

SOUTHEAST MONTANA


CITY           SKY/WX    TMP DP  RH WIND       PRES   REMARKS
BILLINGS       MOCLDY    28  10  46 NE13      29.92R
MILES CITY     PTCLDY    24  10  55 SW6       29.99S
BAKER          PTCLDY    23   9  55 S7        29.99S
LIVINGSTON     CLOUDY    26  12  55 E13       29.86R

CENTRAL MONTANA


CITY           SKY/WX    TMP DP  RH WIND       PRES   REMARKS
HAVRE          CLEAR     20   8  60 NW14      30.07R
LEWISTOWN      FLURRIES  15   9  76 NW12      29.98R
GREAT FALLS    LGT SNOW  18  12  79 N10       30.03R
CUT BANK       LGT SNOW  17  10  74 N17       30.04R
HELENA           N/A     22  11  62 MISG      29.98R
BUTTE          CLOUDY    25  11  55 S17       29.79R
BOZEMAN        CLOUDY    28  11  48 CALM      29.86S

WESTERN MONTANA


CITY           SKY/WX    TMP DP  RH WIND       PRES   REMARKS
MISSOULA       CLOUDY    37  10  32 E14       29.84R
KALISPELL      NOT AVBL

NORTH DAKOTA


CITY           SKY/WX    TMP DP  RH WIND       PRES   REMARKS
WILLISTON      PTCLDY    25   5  42 S6        30.04F
DICKINSON      PTCLDY    23   6  48 S12       30.01F
MINOT          FAIR      16   3  56 SE8       30.15S
BISMARCK       CLEAR     17   5  59 SE14      30.20F

SOUTHERN SASKATCHEWAN


CITY           SKY/WX    TMP DP  RH WIND       PRES   REMARKS
REGINA         CLOUDY     3  -2  78 SE5       30.10S
MOOSE JAW      MOCLDY     3  -4  72 NW8       30.10S
ESTEVAN        MOCLDY    12   3  67 SE7       30.09F
SWIFT CURRENT  CLEAR      9   1  72 NW7       30.04S




USA.gov is the U.S. government's official web portal to all federal, state and local government web resources and services.